Regional Weather Roundup
Issued by NWS Upton, NY

Current Version | Previous Version | Graphics & Text | Print | Product List | Glossary Off
Versions: 1 2 3 4 5 6 7 8 9 10 11 12 13 14 15 16 17 18 19 20 21 22 23 24 25 26 27 28 29 30 31 32 33 34 35 36 37 38 39 40 41 42 43 44 45 46 47 48 49 50

726
ASUS41 KOKX 272308
RWROKX

REGIONAL WEATHER ROUNDUP
NATIONAL WEATHER SERVICE NEW YORK NY
700 PM EDT TUE JUN 27 2017

NOTE: "FAIR" INDICATES FEW OR NO CLOUDS BELOW 12,000 FEET WITH NO
SIGNIFICANT WEATHER AND/OR OBSTRUCTIONS TO VISIBILITY.

NYZ071-072-176-178-NJZ106-104-280000-
NEW YORK CITY METRO AREA

CITY           SKY/WX    TMP DP  RH WIND       PRES   REMARKS
Central Park   MOSUNNY   73  51  46 CALM      29.96R
Bronx Bot Gard   N/A     73  48  40 NE1       29.96R
LaGuardia APRT PTSUNNY   76  52  43 W14G21    29.93R
Kennedy INTL   PTSUNNY   72  61  68 S13       29.94S
Breezy Point     N/A     68 N/A N/A S8          N/A
Newark/Liberty PTSUNNY   75  50  41 W12       29.94R
Teterboro      MOSUNNY   73  49  42 W12       29.92R
$$

NYZ177-179-078>081-280000-
LONG ISLAND NEW YORK

CITY           SKY/WX    TMP DP  RH WIND       PRES   REMARKS
Jones Beach      N/A     70 N/A N/A S8G14       N/A
Matinecock PT    N/A    N/A N/A N/A NW10G16     N/A
Farmingdale    SUNNY     72  55  56 SW8       29.93F
MacArthur/ISP  PTSUNNY   72  57  59 SW12      29.92S
Shirley        MOSUNNY   73  59  61 SW10      29.93F
Mt Sinai Harb    N/A    N/A N/A N/A SW5         N/A
Westhampton    MOSUNNY   71  56  58 SW8G20    29.95S
East Hampton   FAIR      71  60  69 S9        29.92F
Montauk          N/A     69  65  86 S9        29.94F
$$

NYZ052-065-067-280000-
HUDSON VALLEY

CITY           SKY/WX    TMP DP  RH WIND       PRES   REMARKS
White Plains   MOSUNNY   71  45  39 W13       29.94R
Larchmont Harb   N/A     72 N/A N/A W8          N/A
Croton O-T Hud   N/A     72 N/A N/A W12G17      N/A
Newburgh       MOSUNNY   72  50  46 NW12      29.95R
Montgomery     MOSUNNY   72  46  39 NW6       29.94R
Poughkeepsie   MOSUNNY   70  50  49 NW8       29.93R
Albany         MOSUNNY   64  50  60 NW9       29.95R
$$

NJZ001-105-106-008-010-013-015-019>022-104-280000-
NEW JERSEY

CITY           SKY/WX    TMP DP  RH WIND       PRES   REMARKS
Newark/Liberty PTSUNNY   75  50  41 W12       29.94R
Teterboro      MOSUNNY   73  49  42 W12       29.92R
Caldwell       PTSUNNY   75  49  39 W5        29.95R
Somerville     PTSUNNY   70  54  56 VRB5      29.94R
Linden         FAIR      76  49  38 NW9       29.93R
Perth Amboy      N/A     75 N/A N/A NW13        N/A
Sussex         PTSUNNY   68  49  50 VRB5      29.95S
Andover          N/A     68  55  63 CALM      29.96S
Trenton        MOSUNNY   75  52  44 NW6       29.94R
Millville      MOSUNNY   77  54  44 W9        29.96R
Atlantic City  MOSUNNY   78  53  41 W7        29.95S
Wrightstown    SUNNY     77  51  41 W12       29.92R
Toms River     MOSUNNY   78  51  38 W9        29.95R
Belmar         MOSUNNY   72  60  66 E5        29.95S
$$

PAZ047>061-062-071-280000-
EASTERN PENNSYLVANIA

CITY           SKY/WX    TMP DP  RH WIND       PRES   REMARKS
Philadelphia   PTSUNNY   78  48  34 W15       29.96R
Allentown      PTSUNNY   73  47  39 W13G21    29.96R
Scranton       PTSUNNY   70  50  49 NW7       29.97R
$$

CTZ002-004>006-009-010-012-RIZ004-006-007-MAZ004-011-015-280000-
SOUTHERN NEW ENGLAND
 IN CT

CITY           SKY/WX    TMP DP  RH WIND       PRES   REMARKS
Bradley INTL   CLOUDY    72  59  63 SW8       29.90R
Hartford       CLOUDY    66  60  81 E8        29.89S THUNDER
Danbury        NOT AVBL
Wtrbury/Oxford MOSUNNY   70  46  43 W8        29.93R
Bridgeport     TSTM      70  58  65 SW13G18   29.93R
Meriden        HVY RAIN  66  57  72 SW12G23   29.92R
New Haven      MOSUNNY   72  60  66 SW8       29.92R
Chester        FAIR      70  59  68 S7G13     29.92S
Groton         MOSUNNY   69  61  75 SW16      29.90F
Wilimantic     MOSUNNY   74  59  59 S8        29.90R

 IN RI

CITY           SKY/WX    TMP DP  RH WIND       PRES   REMARKS
Providence     PTSUNNY   71  63  75 SW10      29.91S
Block Island   MOSUNNY   69  64  84 SW13      29.94S
Westerly       SUNNY     70  65  84 S15       29.92F
 IN MA

CITY           SKY/WX    TMP DP  RH WIND       PRES   REMARKS
Boston         PTSUNNY   69  54  58 W22G32    29.94R THUNDER
Worcester      MOSUNNY   63  55  75 S9        29.93R
Westfield      CLOUDY    67  54  63 NW14G22     N/A
Provincetown   PTSUNNY   69  60  73 S9        29.94S
Nantucket      MOSUNNY   65  62  90 S9        29.96S
$$

ANZ330-335-338-340-345-350-353-355-280000-
COASTAL MARINE OBSERVATIONS


STATION/POSITION TIME  SKY/WX   TEMP    WIND        PRES    VSBY  WAVE
                                AIR SEA DIR/SP/G                  HT/PER
                 (UTC)          (F)     (DEG/KT/KT) (MB)    (MI)  (FT/S)
NY HARB ENTRANCE 2250            70 69  170/ 12/ 14 1013.5          1/ 8
20 S FIRE ISLAND 2250            70 71  220/  8/ 10 1013.6          2/ 7
GREAT SOUTH BAY  2230            70 76  220/ 10/ 14   N/A
23 SSW MONTAUK P 2250            68 66              1013.9          3/ 4
15 E BARNEGAT LI 2300               67                N/A           2/ 3
HUDSON CANYON    2250            70 69  230/  6/  6 1014.1          2/ 4
KINGS POINT      2248            72 67  230/  6/ 10 1013.4
EXECUTION ROCKS  2245            73     240/  6/ 14   N/A
CENTRAL LI SOUND 2215            72     210/ 10/ 12   N/A           0
EASTERN LI SOUND NOT AVBL
ROBBINS REEF     2248                   290/ 11/ 16 1014.0
$$


>>>>>>>>>>>>>>>>>>>>>>>>>>>> KEY <<<<<<<<<<<<<<<<<<<<<<<<<<<
>                                                          <
>     SKY/WX - Sky Condition/Present Weather               <
>     TMP    - Temperature in Fahrenheit                   <
>     DP     - Dew Point in Fahrenheit                     <
>     RH     - Relative Humidity in Percent                <
>     WIND   - Direction (from) and Speed in MPH           <
>     PRES   - Mean Sea Level Pressure (inches of Hg)      <
>     WCI    - Wind Chill Index                            <
>     VSB    - VISIBILITY IN MILES                         <
>     HX     - HEAT INDEX                                  <
>     TC     - TEMPERATURE IN CELSIUS                      <
>     VRB    - VARIABLE WIND DIRECTION                     <
>                                                          <
>>>>>>>>>>>>>>>>>>>>>>>>>>>> KEY <<<<<<<<<<<<<<<<<<<<<<<<<<<




USA.gov is the U.S. government's official web portal to all federal, state and local government web resources and services.